FDX430 KSAN-KPDX

Flight info

Callsign FDX430
Flight time 1h 58m
Altitude 36000
Route PADRZ2 EHF DNOLD GALLO TMBRS4
Aircraft MD11/H-SDE1E2E3FGHIJ2J3J4J5M1RWXY/LB1D1

Departure

Time 2026-04-26 02:22
Airport San Diego International Airport (KSAN)

Arrival

Time 2026-04-26 04:21
Airport Portland International Airport (KPDX)
Time Latitude Longitude Altitude Speed Heading
2026-04-26 02:02 32.73519 -117.18364 30 ft 0 kts 52°
2026-04-26 02:13 32.73510 -117.18380 29 ft 2 kts 58°
2026-04-26 02:13 32.73502 -117.18397 30 ft 2 kts 70°
2026-04-26 02:14 32.73498 -117.18416 31 ft 2 kts 93°
2026-04-26 02:14 32.73501 -117.18435 30 ft 2 kts 126°
2026-04-26 02:14 32.73511 -117.18448 28 ft 1 kts 142°
2026-04-26 02:14 32.73515 -117.18451 27 ft 0 kts 143°
2026-04-26 02:16 32.73513 -117.18450 27 ft 2 kts 143°
2026-04-26 02:17 32.73474 -117.18415 31 ft 13 kts 143°
2026-04-26 02:17 32.73400 -117.18396 31 ft 10 kts 192°
2026-04-26 02:17 32.73340 -117.18394 30 ft 7 kts 145°
2026-04-26 02:17 32.73317 -117.18330 30 ft 12 kts 108°
2026-04-26 02:18 32.73292 -117.18228 29 ft 13 kts 106°
2026-04-26 02:18 32.73261 -117.18104 29 ft 19 kts 106°
2026-04-26 02:18 32.73221 -117.17938 28 ft 21 kts 106°
2026-04-26 02:18 32.73181 -117.17773 29 ft 20 kts 106°
2026-04-26 02:19 32.73145 -117.17622 27 ft 16 kts 107°
2026-04-26 02:19 32.73105 -117.17559 28 ft 0 kts 143°
2026-04-26 02:20 32.73103 -117.17557 28 ft 3 kts 143°
2026-04-26 02:20 32.73061 -117.17527 29 ft 8 kts 163°
2026-04-26 02:21 32.73026 -117.17539 30 ft 4 kts 220°
2026-04-26 02:21 32.73022 -117.17581 29 ft 6 kts 281°
2026-04-26 02:21 32.73027 -117.17604 28 ft 0 kts 287°
2026-04-26 02:22 32.73028 -117.17606 28 ft 1 kts 287°
2026-04-26 02:22 32.73095 -117.17879 31 ft 81 kts 286°
2026-04-26 02:22 32.73331 -117.18866 32 ft 163 kts 286°
2026-04-26 02:22 32.73630 -117.20188 885 ft 163 kts 283°
2026-04-26 02:23 32.73950 -117.21483 1946 ft 167 kts 287°
2026-04-26 02:23 32.74508 -117.22723 2890 ft 173 kts 300°
2026-04-26 02:23 32.75227 -117.23961 3471 ft 199 kts 302°
2026-04-26 02:23 32.76081 -117.25411 3641 ft 227 kts 302°
2026-04-26 02:24 32.77026 -117.26998 3781 ft 241 kts 303°
2026-04-26 02:24 32.78018 -117.28650 3913 ft 249 kts 303°
2026-04-26 02:24 32.79042 -117.30351 4257 ft 255 kts 303°
2026-04-26 02:24 32.80098 -117.32053 5025 ft 256 kts 304°
2026-04-26 02:25 32.80812 -117.33171 5588 ft 257 kts 305°
2026-04-26 02:25 32.81899 -117.34862 6408 ft 259 kts 305°
2026-04-26 02:25 32.83368 -117.37142 7399 ft 265 kts 305°
2026-04-26 02:25 32.84488 -117.38879 8182 ft 267 kts 304°
2026-04-26 02:26 32.85624 -117.40640 8994 ft 269 kts 304°
2026-04-26 02:26 32.86397 -117.41840 9555 ft 271 kts 303°
2026-04-26 02:26 32.87558 -117.43644 10190 ft 282 kts 303°
2026-04-26 02:26 32.88805 -117.45595 10306 ft 310 kts 303°
2026-04-26 02:27 32.90146 -117.47693 10425 ft 335 kts 304°
2026-04-26 02:27 32.91590 -117.49939 10994 ft 345 kts 303°
2026-04-26 02:27 32.93061 -117.52223 11768 ft 349 kts 303°
2026-04-26 02:27 32.94540 -117.54531 12510 ft 353 kts 303°
2026-04-26 02:28 32.96039 -117.56875 13276 ft 358 kts 302°
2026-04-26 02:28 32.97563 -117.59264 13820 ft 369 kts 302°
2026-04-26 02:28 32.99108 -117.61684 14174 ft 366 kts 302°
2026-04-26 02:28 33.00649 -117.64098 14540 ft 366 kts 302°
2026-04-26 02:29 33.02197 -117.66525 14955 ft 370 kts 302°
2026-04-26 02:29 33.03755 -117.68970 15657 ft 372 kts 302°
2026-04-26 02:29 33.05338 -117.71434 16282 ft 378 kts 304°
2026-04-26 02:29 33.07156 -117.73749 16925 ft 386 kts 310°
2026-04-26 02:30 33.09162 -117.75919 17550 ft 392 kts 313°
2026-04-26 02:30 33.11255 -117.78047 18167 ft 397 kts 314°
2026-04-26 02:30 33.13382 -117.80176 18719 ft 401 kts 313°
2026-04-26 02:30 33.15523 -117.82322 19297 ft 403 kts 313°
2026-04-26 02:31 33.17674 -117.84491 19861 ft 405 kts 312°
2026-04-26 02:31 33.19839 -117.86665 20445 ft 408 kts 312°
2026-04-26 02:31 33.22040 -117.88839 20944 ft 413 kts 312°
2026-04-26 02:31 33.24271 -117.91025 21506 ft 416 kts 312°
2026-04-26 02:32 33.26515 -117.93217 22082 ft 418 kts 311°
2026-04-26 02:32 33.28744 -117.95397 22639 ft 420 kts 311°
2026-04-26 02:32 33.31011 -117.97617 23217 ft 423 kts 310°
2026-04-26 02:32 33.33292 -117.99855 23735 ft 425 kts 310°
2026-04-26 02:33 33.35582 -118.02104 24201 ft 428 kts 310°
2026-04-26 02:33 33.37888 -118.04370 24664 ft 430 kts 310°
2026-04-26 02:33 33.40196 -118.06643 25099 ft 434 kts 311°
2026-04-26 02:33 33.42548 -118.08958 25598 ft 436 kts 311°
2026-04-26 02:34 33.44895 -118.11270 26044 ft 438 kts 311°
2026-04-26 02:34 33.47256 -118.13597 26498 ft 441 kts 311°
2026-04-26 02:34 33.49630 -118.15939 26929 ft 443 kts 310°
2026-04-26 02:34 33.52019 -118.18297 27354 ft 446 kts 310°
2026-04-26 02:35 33.54423 -118.20672 27778 ft 448 kts 310°
2026-04-26 02:35 33.56908 -118.22986 28152 ft 458 kts 316°
2026-04-26 02:35 33.59684 -118.24959 28543 ft 470 kts 323°
2026-04-26 02:35 33.62648 -118.26689 28928 ft 477 kts 326°
2026-04-26 02:36 33.65693 -118.28315 29310 ft 481 kts 327°
2026-04-26 02:36 33.68770 -118.29924 29703 ft 484 kts 327°
2026-04-26 02:36 33.71857 -118.31557 30093 ft 486 kts 327°
2026-04-26 02:36 33.74951 -118.33217 30430 ft 488 kts 327°
2026-04-26 02:37 33.78067 -118.34845 30906 ft 489 kts 328°
2026-04-26 02:37 33.81209 -118.36448 31268 ft 491 kts 328°
2026-04-26 02:37 33.84353 -118.38033 31757 ft 489 kts 328°
2026-04-26 02:37 33.87490 -118.39609 32225 ft 489 kts 328°
2026-04-26 02:38 33.90626 -118.41189 32676 ft 488 kts 328°
2026-04-26 02:38 33.93754 -118.42771 33104 ft 487 kts 328°
2026-04-26 02:38 33.96879 -118.44355 33538 ft 486 kts 328°
2026-04-26 02:38 34.00070 -118.45779 33927 ft 495 kts 336°
2026-04-26 02:39 34.03454 -118.46703 34237 ft 502 kts 342°
2026-04-26 02:39 34.06885 -118.47292 34561 ft 506 kts 345°
2026-04-26 02:39 34.10390 -118.47752 34875 ft 506 kts 346°
2026-04-26 02:39 34.13892 -118.48184 35177 ft 506 kts 346°
2026-04-26 02:40 34.17392 -118.48640 35480 ft 504 kts 346°
2026-04-26 02:40 34.20874 -118.49130 35807 ft 503 kts 346°
2026-04-26 02:40 34.24365 -118.49652 35905 ft 506 kts 346°
2026-04-26 02:41 34.31334 -118.50732 35959 ft 502 kts 345°
2026-04-26 02:41 34.38251 -118.51815 35954 ft 501 kts 345°
2026-04-26 02:42 34.45169 -118.52900 35951 ft 501 kts 346°
2026-04-26 02:42 34.52084 -118.53980 35916 ft 500 kts 346°
2026-04-26 02:43 34.62408 -118.55597 35922 ft 500 kts 346°
2026-04-26 02:43 34.69317 -118.56681 35913 ft 500 kts 346°
2026-04-26 02:44 34.76207 -118.57763 35905 ft 499 kts 346°
2026-04-26 02:44 34.83107 -118.58850 35900 ft 500 kts 346°
2026-04-26 02:45 34.90004 -118.59942 35902 ft 499 kts 346°
2026-04-26 02:45 34.96900 -118.61048 35906 ft 498 kts 345°
2026-04-26 02:46 35.03405 -118.63401 35911 ft 479 kts 326°
2026-04-26 02:46 35.06208 -118.65528 35912 ft 469 kts 315°
2026-04-26 02:46 35.08657 -118.68053 35921 ft 466 kts 311°
2026-04-26 02:47 35.13379 -118.73477 35908 ft 467 kts 311°
2026-04-26 02:47 35.18243 -118.78781 35897 ft 469 kts 313°
2026-04-26 02:48 35.23227 -118.83950 35901 ft 470 kts 314°
2026-04-26 02:48 35.28245 -118.89093 35918 ft 472 kts 314°
2026-04-26 02:49 35.33277 -118.94260 35912 ft 472 kts 314°
2026-04-26 02:49 35.38304 -118.99436 35919 ft 471 kts 314°
2026-04-26 02:50 35.43313 -119.04608 35922 ft 471 kts 314°
2026-04-26 02:50 35.48717 -119.09253 35907 ft 483 kts 329°
2026-04-26 02:51 35.55147 -119.11976 35913 ft 492 kts 340°
2026-04-26 02:51 35.61766 -119.14160 35934 ft 493 kts 340°
2026-04-26 02:52 35.68352 -119.16507 35926 ft 493 kts 338°
2026-04-26 02:52 35.74859 -119.18968 35925 ft 492 kts 338°
2026-04-26 02:53 35.81404 -119.21481 35933 ft 492 kts 338°
2026-04-26 02:53 35.87950 -119.23995 35911 ft 493 kts 338°
2026-04-26 02:54 35.94497 -119.26508 35913 ft 491 kts 338°
2026-04-26 02:54 36.01012 -119.29010 35917 ft 490 kts 338°
2026-04-26 02:55 36.07529 -119.31518 35907 ft 491 kts 338°
2026-04-26 02:55 36.14061 -119.34037 35895 ft 491 kts 338°
2026-04-26 02:56 36.20587 -119.36557 35897 ft 491 kts 338°
2026-04-26 02:56 36.27113 -119.39083 35897 ft 491 kts 339°
2026-04-26 02:57 36.33629 -119.41619 35897 ft 491 kts 339°
2026-04-26 02:57 36.40103 -119.44140 35896 ft 491 kts 339°
2026-04-26 02:58 36.46627 -119.46679 35894 ft 490 kts 339°
2026-04-26 02:58 36.53129 -119.49212 35889 ft 489 kts 339°
2026-04-26 02:59 36.59630 -119.51749 35894 ft 490 kts 339°
2026-04-26 02:59 36.66134 -119.54293 35917 ft 490 kts 339°
2026-04-26 03:00 36.72621 -119.56834 35908 ft 488 kts 339°
2026-04-26 03:00 36.79092 -119.59373 35915 ft 488 kts 339°
2026-04-26 03:01 36.85527 -119.61903 35912 ft 488 kts 339°
2026-04-26 03:01 36.91995 -119.64450 35906 ft 488 kts 339°
2026-04-26 03:02 36.98464 -119.67002 35912 ft 488 kts 339°
2026-04-26 03:02 37.04948 -119.69565 35900 ft 490 kts 339°
2026-04-26 03:03 37.11444 -119.72145 35896 ft 490 kts 339°
2026-04-26 03:03 37.17938 -119.74731 35906 ft 490 kts 339°
2026-04-26 03:04 37.24429 -119.77312 35900 ft 489 kts 339°
2026-04-26 03:04 37.30921 -119.79897 35901 ft 489 kts 339°
2026-04-26 03:05 37.37405 -119.82482 35905 ft 489 kts 339°
2026-04-26 03:05 37.43876 -119.85069 35911 ft 486 kts 340°
2026-04-26 03:06 37.50297 -119.87637 35911 ft 484 kts 340°
2026-04-26 03:06 37.56718 -119.90212 35915 ft 485 kts 340°
2026-04-26 03:07 37.63142 -119.92793 35911 ft 484 kts 340°
2026-04-26 03:07 37.69565 -119.95378 35906 ft 484 kts 340°
2026-04-26 03:08 37.75982 -119.97965 35909 ft 484 kts 340°
2026-04-26 03:08 37.82391 -120.00554 35909 ft 483 kts 340°
2026-04-26 03:09 37.88797 -120.03150 35904 ft 483 kts 340°
2026-04-26 03:09 37.95197 -120.05757 35903 ft 483 kts 340°
2026-04-26 03:10 38.01564 -120.08347 35899 ft 483 kts 340°
2026-04-26 03:10 38.07962 -120.10951 35897 ft 483 kts 340°
2026-04-26 03:11 38.14362 -120.13563 35895 ft 481 kts 340°
2026-04-26 03:11 38.20714 -120.16155 35890 ft 479 kts 340°
2026-04-26 03:12 38.25996 -120.18315 35890 ft 480 kts 340°
2026-04-26 03:12 38.32349 -120.20918 35890 ft 479 kts 340°
2026-04-26 03:13 38.38689 -120.23520 35886 ft 478 kts 340°
2026-04-26 03:13 38.45021 -120.26124 35878 ft 478 kts 340°
2026-04-26 03:14 38.51355 -120.28734 35889 ft 479 kts 340°
2026-04-26 03:14 38.57702 -120.31354 35878 ft 479 kts 340°
2026-04-26 03:15 38.64002 -120.33960 35879 ft 479 kts 340°
2026-04-26 03:15 38.70341 -120.36595 35882 ft 479 kts 340°
2026-04-26 03:16 38.76680 -120.39238 35884 ft 479 kts 340°
2026-04-26 03:16 38.83016 -120.41877 35889 ft 478 kts 340°
2026-04-26 03:17 38.89337 -120.44510 35885 ft 477 kts 340°
2026-04-26 03:17 38.95654 -120.47146 35883 ft 478 kts 340°
2026-04-26 03:18 39.01974 -120.49789 35879 ft 477 kts 339°
2026-04-26 03:18 39.08292 -120.52436 35891 ft 476 kts 339°
2026-04-26 03:19 39.14595 -120.55082 35887 ft 477 kts 339°
2026-04-26 03:19 39.20898 -120.57733 35889 ft 476 kts 339°
2026-04-26 03:20 39.27204 -120.60390 35896 ft 476 kts 339°
2026-04-26 03:20 39.33508 -120.63052 35896 ft 476 kts 339°
2026-04-26 03:21 39.39770 -120.65701 35855 ft 476 kts 339°
2026-04-26 03:21 39.46066 -120.68371 35854 ft 476 kts 339°
2026-04-26 03:22 39.52355 -120.71056 35853 ft 476 kts 339°
2026-04-26 03:22 39.58652 -120.73741 35855 ft 476 kts 338°
2026-04-26 03:23 39.64945 -120.76425 35858 ft 476 kts 338°
2026-04-26 03:23 39.71231 -120.79109 35865 ft 475 kts 338°
2026-04-26 03:24 39.77523 -120.81801 35850 ft 476 kts 338°
2026-04-26 03:24 39.83818 -120.84500 35841 ft 476 kts 338°
2026-04-26 03:25 39.90072 -120.87186 35837 ft 476 kts 338°
2026-04-26 03:25 39.96359 -120.89892 35827 ft 476 kts 338°
2026-04-26 03:26 40.02650 -120.92605 35819 ft 476 kts 338°
2026-04-26 03:26 40.08929 -120.95317 35817 ft 475 kts 338°
2026-04-26 03:27 40.15189 -120.98026 35821 ft 472 kts 338°
2026-04-26 03:27 40.21411 -121.00725 35814 ft 471 kts 338°
2026-04-26 03:28 40.27626 -121.03433 35812 ft 469 kts 337°
2026-04-26 03:28 40.33821 -121.06144 35804 ft 470 kts 337°
2026-04-26 03:29 40.39981 -121.08837 35814 ft 470 kts 337°
2026-04-26 03:29 40.46191 -121.11514 35813 ft 470 kts 338°
2026-04-26 03:30 40.52441 -121.14094 35816 ft 471 kts 339°
2026-04-26 03:30 40.58701 -121.16657 35816 ft 471 kts 338°
2026-04-26 03:31 40.64945 -121.19223 35813 ft 470 kts 338°
2026-04-26 03:31 40.71184 -121.21800 35812 ft 470 kts 338°
2026-04-26 03:32 40.77422 -121.24381 35814 ft 470 kts 338°
2026-04-26 03:32 40.83618 -121.26951 35807 ft 469 kts 338°
2026-04-26 03:33 40.89854 -121.29542 35819 ft 469 kts 338°
2026-04-26 03:33 40.96085 -121.32135 35810 ft 469 kts 338°
2026-04-26 03:34 41.02313 -121.34733 35803 ft 469 kts 338°
2026-04-26 03:34 41.08544 -121.37337 35807 ft 469 kts 338°
2026-04-26 03:35 41.14767 -121.39943 35800 ft 468 kts 338°
2026-04-26 03:35 41.20980 -121.42550 35799 ft 468 kts 338°
2026-04-26 03:36 41.27187 -121.45169 35802 ft 468 kts 338°
2026-04-26 03:36 41.33385 -121.47792 35796 ft 467 kts 338°
2026-04-26 03:37 41.39577 -121.50409 35796 ft 467 kts 338°
2026-04-26 03:37 41.45723 -121.53009 35792 ft 465 kts 338°
2026-04-26 03:38 41.51924 -121.55636 35781 ft 464 kts 338°
2026-04-26 03:38 41.58079 -121.58250 35789 ft 464 kts 338°
2026-04-26 03:39 41.64199 -121.60855 35787 ft 464 kts 338°
2026-04-26 03:39 41.70341 -121.63474 35774 ft 463 kts 338°
2026-04-26 03:40 41.76490 -121.66101 35786 ft 463 kts 339°
2026-04-26 03:40 41.82630 -121.68730 35780 ft 462 kts 339°
2026-04-26 03:41 41.88759 -121.71359 35778 ft 463 kts 339°
2026-04-26 03:41 41.94900 -121.73999 35784 ft 463 kts 339°
2026-04-26 03:42 42.01035 -121.76640 35779 ft 462 kts 339°
2026-04-26 03:42 42.07149 -121.79290 35776 ft 462 kts 339°
2026-04-26 03:43 42.13229 -121.81932 35777 ft 462 kts 339°
2026-04-26 03:43 42.19346 -121.84586 35780 ft 462 kts 339°
2026-04-26 03:44 42.25464 -121.87242 35773 ft 462 kts 339°
2026-04-26 03:44 42.31581 -121.89904 35774 ft 461 kts 339°
2026-04-26 03:45 42.37686 -121.92565 35779 ft 461 kts 339°
2026-04-26 03:45 42.43794 -121.95234 35782 ft 461 kts 339°
2026-04-26 03:46 42.49905 -121.97910 35772 ft 461 kts 340°
2026-04-26 03:47 42.59044 -122.01920 35777 ft 460 kts 340°
2026-04-26 03:47 42.65092 -122.04581 35777 ft 460 kts 340°
2026-04-26 03:48 42.71167 -122.07260 35781 ft 458 kts 340°
2026-04-26 03:48 42.77215 -122.09932 35782 ft 457 kts 340°
2026-04-26 03:49 42.83264 -122.12614 35791 ft 457 kts 340°
2026-04-26 03:49 42.89305 -122.15311 35795 ft 457 kts 340°
2026-04-26 03:50 42.95334 -122.18065 35804 ft 457 kts 339°
2026-04-26 03:50 43.01352 -122.20891 35800 ft 457 kts 339°
2026-04-26 03:51 43.07359 -122.23720 35804 ft 456 kts 339°
2026-04-26 03:51 43.13363 -122.26548 35813 ft 456 kts 339°
2026-04-26 03:52 43.19374 -122.29382 35813 ft 457 kts 339°
2026-04-26 03:52 43.25342 -122.32201 35820 ft 456 kts 339°
2026-04-26 03:53 43.31343 -122.35042 35820 ft 456 kts 339°
2026-04-26 03:53 43.37336 -122.37884 35824 ft 456 kts 339°
2026-04-26 03:54 43.43341 -122.40741 35830 ft 458 kts 340°
2026-04-26 03:54 43.49362 -122.43631 35824 ft 458 kts 339°
2026-04-26 03:55 43.55390 -122.46531 35826 ft 458 kts 340°
2026-04-26 03:55 43.61368 -122.49408 35825 ft 457 kts 340°
2026-04-26 03:56 43.67368 -122.52299 35825 ft 457 kts 340°
2026-04-26 03:56 43.73380 -122.55201 35827 ft 457 kts 340°
2026-04-26 03:57 43.79343 -122.58086 35411 ft 442 kts 340°
2026-04-26 03:57 43.82220 -122.59480 34988 ft 435 kts 340°
2026-04-26 03:57 43.85066 -122.60860 34461 ft 432 kts 340°
2026-04-26 03:57 43.87893 -122.62233 33948 ft 429 kts 340°
2026-04-26 03:58 43.90674 -122.63586 33382 ft 428 kts 340°
2026-04-26 03:58 43.93479 -122.64951 32866 ft 427 kts 340°
2026-04-26 03:58 43.96282 -122.66316 32347 ft 428 kts 340°
2026-04-26 03:58 43.99094 -122.67687 31839 ft 428 kts 341°
2026-04-26 03:59 44.01909 -122.69061 31332 ft 428 kts 341°
2026-04-26 03:59 44.04714 -122.70432 30838 ft 427 kts 341°
2026-04-26 03:59 44.07518 -122.71803 30343 ft 427 kts 341°
2026-04-26 03:59 44.10320 -122.73175 29809 ft 426 kts 341°
2026-04-26 04:00 44.13121 -122.74506 29228 ft 425 kts 344°
2026-04-26 04:00 44.16031 -122.75278 28691 ft 427 kts 355°
2026-04-26 04:00 44.19017 -122.75315 28168 ft 430 kts
2026-04-26 04:00 44.22015 -122.75015 27645 ft 433 kts
2026-04-26 04:01 44.25029 -122.74610 27121 ft 436 kts
2026-04-26 04:01 44.28049 -122.74205 26576 ft 435 kts
2026-04-26 04:01 44.31056 -122.73834 26048 ft 433 kts
2026-04-26 04:01 44.34051 -122.73496 25508 ft 430 kts
2026-04-26 04:02 44.36026 -122.73286 25164 ft 429 kts
2026-04-26 04:02 44.39949 -122.72887 24460 ft 426 kts
2026-04-26 04:02 44.42907 -122.72593 23940 ft 424 kts
2026-04-26 04:02 44.45838 -122.72303 23460 ft 421 kts
2026-04-26 04:03 44.48741 -122.72016 23115 ft 414 kts
2026-04-26 04:03 44.50611 -122.71830 22996 ft 398 kts
2026-04-26 04:03 44.53289 -122.71563 22890 ft 374 kts
2026-04-26 04:03 44.55854 -122.71308 22694 ft 367 kts
2026-04-26 04:04 44.58386 -122.71055 22298 ft 364 kts
2026-04-26 04:04 44.60901 -122.70803 21725 ft 361 kts
2026-04-26 04:04 44.63387 -122.70553 21164 ft 355 kts
2026-04-26 04:04 44.65837 -122.70306 20625 ft 351 kts
2026-04-26 04:05 44.68266 -122.70062 20109 ft 348 kts
2026-04-26 04:05 44.70675 -122.69820 19574 ft 346 kts
2026-04-26 04:05 44.73071 -122.69579 19051 ft 344 kts
2026-04-26 04:05 44.75414 -122.69343 18538 ft 341 kts
2026-04-26 04:06 44.77769 -122.69106 18006 ft 338 kts
2026-04-26 04:06 44.80102 -122.68871 17448 ft 334 kts
2026-04-26 04:06 44.82414 -122.68637 16926 ft 332 kts
2026-04-26 04:06 44.84713 -122.68405 16455 ft 329 kts
2026-04-26 04:07 44.86991 -122.68175 16043 ft 327 kts
2026-04-26 04:07 44.89261 -122.67946 15582 ft 327 kts
2026-04-26 04:07 44.91518 -122.67718 15273 ft 324 kts
2026-04-26 04:07 44.93753 -122.67492 15142 ft 316 kts
2026-04-26 04:08 44.95890 -122.67246 15036 ft 303 kts
2026-04-26 04:08 44.97951 -122.66640 14928 ft 302 kts 13°
2026-04-26 04:08 44.99971 -122.65819 14701 ft 300 kts 15°
2026-04-26 04:08 45.01989 -122.64937 14228 ft 305 kts 15°
2026-04-26 04:09 45.03998 -122.64045 13731 ft 300 kts 15°
2026-04-26 04:09 45.05949 -122.63180 13215 ft 296 kts 15°
2026-04-26 04:09 45.07894 -122.62320 12726 ft 293 kts 17°
2026-04-26 04:09 45.09833 -122.61455 12242 ft 292 kts 18°
2026-04-26 04:10 45.11616 -122.60140 11781 ft 290 kts 38°
2026-04-26 04:10 45.13022 -122.58097 11339 ft 290 kts 49°
2026-04-26 04:10 45.14253 -122.55854 10872 ft 288 kts 52°
2026-04-26 04:10 45.15441 -122.53586 10435 ft 285 kts 52°
2026-04-26 04:11 45.16609 -122.51347 10074 ft 278 kts 52°
2026-04-26 04:11 45.17760 -122.49148 9652 ft 275 kts 52°
2026-04-26 04:11 45.18900 -122.46980 9217 ft 273 kts 52°
2026-04-26 04:11 45.20037 -122.44825 8783 ft 272 kts 52°
2026-04-26 04:12 45.21168 -122.42682 8369 ft 271 kts 52°
2026-04-26 04:12 45.22306 -122.40562 7951 ft 269 kts 49°
2026-04-26 04:12 45.23697 -122.38841 7561 ft 265 kts 27°
2026-04-26 04:12 45.25415 -122.37916 7206 ft 264 kts 15°
2026-04-26 04:13 45.27186 -122.37280 6837 ft 262 kts 13°
2026-04-26 04:13 45.28955 -122.36698 6492 ft 260 kts 13°
2026-04-26 04:13 45.30715 -122.36123 6128 ft 259 kts 13°
2026-04-26 04:13 45.32467 -122.35548 5756 ft 258 kts 13°
2026-04-26 04:14 45.34212 -122.34973 5399 ft 257 kts 12°
2026-04-26 04:14 45.35947 -122.34398 5061 ft 255 kts 13°
2026-04-26 04:14 45.37679 -122.33822 4746 ft 255 kts 13°
2026-04-26 04:14 45.39402 -122.33248 4418 ft 254 kts 13°
2026-04-26 04:15 45.41113 -122.32677 4097 ft 250 kts 12°
2026-04-26 04:15 45.42758 -122.32127 3811 ft 233 kts 12°
2026-04-26 04:15 45.44237 -122.31648 3706 ft 212 kts
2026-04-26 04:15 45.45712 -122.31533 3608 ft 214 kts 354°
2026-04-26 04:16 45.47112 -122.32177 3233 ft 210 kts 330°
2026-04-26 04:16 45.48177 -122.33583 2959 ft 212 kts 307°
2026-04-26 04:16 45.48968 -122.35370 2920 ft 214 kts 303°
2026-04-26 04:16 45.49741 -122.37189 2913 ft 215 kts 303°
2026-04-26 04:17 45.50499 -122.39022 2912 ft 212 kts 301°
2026-04-26 04:17 45.51167 -122.40739 2795 ft 188 kts 301°
2026-04-26 04:17 45.51793 -122.42350 2546 ft 185 kts 301°
2026-04-26 04:17 45.52417 -122.43948 2312 ft 184 kts 301°
2026-04-26 04:18 45.53038 -122.45540 2070 ft 183 kts 301°
2026-04-26 04:18 45.53646 -122.47099 1808 ft 170 kts 301°
2026-04-26 04:18 45.54206 -122.48534 1579 ft 164 kts 301°
2026-04-26 04:18 45.54757 -122.49945 1375 ft 162 kts 300°
2026-04-26 04:19 45.55303 -122.51344 1159 ft 161 kts 300°
2026-04-26 04:19 45.55845 -122.52732 948 ft 160 kts 301°
2026-04-26 04:19 45.56382 -122.54108 727 ft 158 kts 300°
2026-04-26 04:19 45.56904 -122.55445 526 ft 155 kts 300°
2026-04-26 04:20 45.57432 -122.56798 303 ft 154 kts 301°
2026-04-26 04:20 45.57944 -122.58113 103 ft 149 kts 300°
2026-04-26 04:20 45.58417 -122.59320 34 ft 120 kts 298°
2026-04-26 04:20 45.58746 -122.60164 36 ft 77 kts 299°
2026-04-26 04:21 45.58865 -122.60557 35 ft 18 kts 255°
2026-04-26 04:21 45.58800 -122.60670 35 ft 11 kts 224°
2026-04-26 04:21 45.58746 -122.60746 34 ft 10 kts 225°
2026-04-26 04:21 45.58692 -122.60822 35 ft 12 kts 225°
2026-04-26 04:22 45.58630 -122.60912 35 ft 13 kts 225°
2026-04-26 04:22 45.58564 -122.61005 34 ft 13 kts 225°
2026-04-26 04:22 45.58498 -122.61098 35 ft 13 kts 225°
2026-04-26 04:22 45.58436 -122.61187 33 ft 12 kts 225°
2026-04-26 04:23 45.58377 -122.61271 33 ft 12 kts 225°
2026-04-26 04:23 45.58319 -122.61346 33 ft 10 kts 210°
2026-04-26 04:23 45.58270 -122.61334 35 ft 6 kts 140°
2026-04-26 04:23 45.58238 -122.61289 34 ft 8 kts 136°
2026-04-26 04:24 45.58186 -122.61215 35 ft 12 kts 135°
2026-04-26 04:24 45.58124 -122.61127 34 ft 13 kts 135°
2026-04-26 04:24 45.58062 -122.61040 35 ft 12 kts 135°
2026-04-26 04:24 45.58000 -122.60962 35 ft 10 kts 154°
2026-04-26 04:25 45.57959 -122.60985 33 ft 5 kts 226°
2026-04-26 04:25 45.57935 -122.61018 35 ft 5 kts 225°
2026-04-26 04:25 45.57933 -122.61021 35 ft 0 kts 225°